カタログに戻る

STARLINK-4198

運用中通信VLEO
NORAD 52858·PAYLOAD·🇺🇸 United States

打ち上げ Jun 17, 2022 から Cape Canaveral Space Force Station

Loading…

次のパス (今後24時間)

TLE

最新Source: CelesTrak SupGP

元期: Sep 15, 2026, 02:52 UTC

1 52858C 22062AE  26258.11993056 -.00042494  00000+0 -12895-2 0  2586
2 52858  53.1582 243.0217 0001252  93.7372 318.0367 15.33568175    17

AllMySatでSTARLINK-4198をリアルタイム追跡

Download on the App Store